Probability
23 55 74 71 71 71 61 58 55 52 52 48 45 42 42 45 48 48 42 39 42 35 35 29 29 26 19 16 16 16 16 16 10 10 10 6 3 3 0 0 0 0 0
29 55 71 71 71 71 55 55 52 52 48 48 48 42 42 42 45 45 42 39 35 35 29 26 26 23 19 13 16 16 13 10 10 10 6 3 6 0 0 0 0 0 0
39 55 68 71 71 65 58 52 52 45 45 42 42 39 39 39 39 42 39 35 32 29 26 26 23 23 16 13 16 13 13 10 6 6 6 0 0 6 6 0 0 3 3
39 55 61 68 68 61 58 52 52 42 45 39 42 39 39 39 39 39 32 29 26 26 26 23 23 16 13 6 6 10 6 10 6 6 3 0 0 6 6 6 3 3 3
45 48 61 65 61 58 55 45 45 45 42 39 42 39 39 35 32 29 29 26 23 23 19 19 16 10 10 6 6 3 3 6 6 3 0 0 0 3 6 6 6 6 0
39 42 61 65 61 55 52 45 42 48 42 42 42 45 35 32 32 29 23 16 19 16 13 13 13 10 10 10 3 3 3 3 3 0 0 0 0 3 6 6 6 6 6
29 45 55 58 61 55 52 42 52 52 45 45 45 45 32 29 26 23 19 16 13 10 13 6 10 10 6 6 3 3 3 3 0 0 0 0 0 3 6 6 6 6 6
32 35 48 58 55 55 55 55 48 45 52 48 45 39 35 29 23 16 13 16 16 10 6 6 6 6 6 6 3 3 3 0 0 0 0 0 0 3 6 6 6 6 3
26 29 39 42 45 52 52 52 45 45 45 52 45 42 35 32 19 13 16 16 16 10 6 6 6 6 6 6 3 3 3 0 0 0 0 0 3 3 3 6 6 6 3
23 26 26 23 26 26 32 32 39 35 39 42 35 19 16 19 13 13 3 6 6 6 6 6 6 6 6 3 3 3 0 0 0 0 0 0 3 3 3 3 3 3 3
16 19 16 16 19 16 19 23 23 23 23 23 13 10 6 6 6 3 3 3 6 6 6 6 6 6 3 3 3 3 0 0 0 0 0 0 3 3 3 3 3 3 3
13 6 10 13 16 13 13 13 6 6 6 10 6 3 6 3 6 3 3 3 3 6 6 6 6 3 3 3 3 0 0 0 0 0 0 0 3 3 3 3 0 0 3
10 6 6 6 6 10 10 6 6 6 3 3 3 3 3 3 3 3 3 3 3 3 3 3 3 3 0 0 0 0 0 0 0 0 0 0 3 3 3 3 0 0 3
10 6 3 3 6 6 3 6 3 3 0 0 0 3 3 3 3 3 3 3 3 0 3 3 0 0 0 0 0 0 0 0 0 0 0 0 3 3 3 0 0 3 3
6 6 3 3 3 3 3 3 3 0 0 0 0 0 0 3 3 3 3 3 0 0 0 0 0 0 0 0 0 0 0 0 0 0 0 0 0 3 0 0 0 0 0
3 3 3 3 0 0 3 3 0 0 0 0 0 0 0 3 3 3 3 0 0 0 0 0 0 0 0 0 0 0 0 0 0 0 0 0 0 0 0 0 0 0 0
3 0 3 3 0 0 0 0 0 0 0 0 0 0 0 0 3 3 0 0 0 0 0 0 0 0 0 0 0 0 0 0 0 0 0 0 0 0 0 0 0 0 0
0 3 3 3 0 0 0 0 0 0 0 0 0 0 0 0 3 0 0 0 0 0 0 0 0 0 0 0 0 0 0 0 0 0 0 0 0 0 0 0 0 0 0
0 0 0 3 0 0 0 0 0 0 0 0 0 0 0 0 0 0 0 0 0 0 0 0 0 0 0 0 0 0 0 0 0 0 0 0 0 0 0 0 0 0 0
0 0 0 0 0 0 0 0 0 0 0 0 0 0 0 0 0 0 0 0 0 0 0 0 0 0 0 0 0 0 0 0 0 0 0 0 0 0 0 0 0 0 0
0 0 0 0 0 0 0 0 0 0 0 0 0 0 0 0 0 0 0 0 0 0 0 0 0 0 0 0 0 0 0 0 0 0 0 0 0 0 0 0 0 0 0
0 0 0 0 0 0 0 0 0 0 0 0 0 0 0 0 0 0 0 0 0 0 0 0 0 0 0 0 0 0 0 0 0 0 0 0 0 0 0 0 0 0 0
0 0 0 0 0 0 0 0 0 0 0 0 0 0 0 0 0 0 0 0 0 0 0 0 0 0 0 0 0 0 0 0 0 0 0 0 0 0 0 0 0 0 0
0 0 0 0 0 0 0 0 0 0 0 0 0 0 0 0 0 0 0 0 0 0 0 0 0 0 0 0 0 0 0 0 0 0 0 0 0 0 0 0 0 0 0
0 0 0 0 0 0 0 0 0 0 0 0 0 0 0 0 0 0 0 0 0 0 0 0 0 0 0 0 0 0 0 0 0 0 0 0 0 0 0 0 0 0 0
0 0 0 0 0 0 0 0 0 0 0 0 0 0 0 0 0 0 0 0 0 0 0 0 0 0 0 0 0 0 0 0 0 0 0 0 0 0 0 0 0 0 0
Height
5859 5860 5861 5861 5862 5863 5863 5864 5865 5865 5866 5867 5867 5867 5868 5868 5869 5869 5869 5869 5869 5869 5869 5869 5869 5868 5868 5868 5867 5867 5866 5865 5864 5864 5863 5862 5861 5860 5859 5857 5856 5855 5854
5856 5857 5858 5859 5859 5860 5861 5862 5862 5863 5864 5864 5865 5865 5866 5866 5867 5867 5867 5867 5868 5868 5867 5867 5867 5867 5867 5866 5866 5865 5865 5864 5863 5862 5861 5860 5859 5858 5857 5856 5855 5853 5852
5852 5853 5854 5855 5856 5857 5858 5859 5859 5860 5861 5862 5863 5863 5863 5864 5864 5865 5865 5865 5865 5866 5866 5866 5865 5865 5865 5864 5864 5863 5863 5862 5861 5860 5859 5858 5857 5856 5855 5854 5853 5851 5850
5848 5849 5850 5851 5852 5853 5854 5855 5856 5857 5858 5859 5860 5860 5861 5861 5861 5862 5862 5863 5863 5863 5863 5863 5863 5863 5863 5862 5862 5861 5861 5860 5859 5858 5857 5856 5855 5854 5852 5851 5850 5849 5848
5843 5844 5845 5846 5847 5848 5849 5850 5852 5853 5854 5855 5856 5857 5858 5858 5858 5859 5859 5859 5860 5860 5860 5861 5860 5860 5860 5860 5859 5859 5858 5857 5857 5856 5855 5854 5853 5851 5850 5849 5847 5846 5845
5838 5839 5840 5841 5842 5843 5844 5845 5847 5848 5850 5851 5852 5853 5854 5855 5855 5855 5856 5856 5857 5857 5857 5857 5857 5857 5857 5857 5856 5856 5855 5855 5854 5853 5852 5851 5850 5849 5847 5846 5845 5843 5842
5832 5833 5834 5835 5836 5837 5838 5840 5841 5843 5844 5846 5847 5849 5850 5850 5851 5852 5852 5853 5853 5853 5854 5854 5853 5853 5853 5853 5853 5852 5852 5851 5851 5850 5849 5848 5847 5846 5844 5843 5842 5840 5839
5825 5827 5828 5829 5830 5831 5832 5834 5835 5837 5839 5841 5842 5843 5845 5846 5847 5847 5847 5848 5849 5849 5849 5850 5850 5850 5850 5849 5849 5849 5848 5848 5847 5846 5845 5844 5843 5842 5841 5839 5838 5837 5835
5819 5820 5821 5823 5824 5825 5826 5828 5829 5831 5833 5835 5836 5838 5839 5841 5841 5842 5842 5843 5844 5844 5845 5845 5845 5845 5845 5845 5845 5844 5844 5843 5843 5842 5841 5840 5839 5838 5837 5836 5834 5833 5831
5811 5813 5814 5816 5817 5819 5820 5821 5823 5825 5826 5828 5830 5832 5833 5834 5835 5836 5837 5838 5838 5839 5839 5840 5840 5840 5840 5840 5840 5840 5839 5839 5838 5838 5837 5836 5835 5834 5832 5831 5830 5828 5826
5804 5806 5807 5809 5810 5812 5813 5815 5817 5818 5820 5822 5824 5825 5827 5828 5829 5830 5831 5831 5832 5833 5833 5834 5834 5834 5835 5835 5835 5834 5834 5834 5833 5832 5832 5831 5830 5829 5828 5826 5825 5823 5822
5796 5798 5799 5801 5803 5805 5807 5808 5810 5812 5813 5815 5817 5819 5820 5821 5822 5823 5824 5825 5826 5826 5827 5827 5828 5828 5828 5829 5829 5828 5828 5828 5828 5827 5826 5825 5824 5824 5822 5821 5819 5818 5816
5787 5789 5791 5793 5795 5797 5799 5801 5802 5804 5806 5808 5810 5811 5812 5814 5815 5816 5816 5817 5818 5819 5820 5821 5821 5821 5822 5822 5822 5822 5822 5822 5822 5821 5821 5819 5819 5818 5817 5815 5814 5812 5810
5777 5780 5782 5784 5786 5788 5790 5793 5794 5796 5798 5800 5802 5803 5804 5806 5807 5808 5809 5810 5811 5812 5812 5813 5814 5814 5815 5815 5815 5815 5815 5815 5815 5815 5814 5813 5812 5811 5810 5809 5807 5806 5804
5767 5770 5772 5775 5777 5779 5782 5784 5786 5788 5789 5791 5793 5795 5796 5798 5800 5801 5802 5802 5803 5804 5805 5805 5806 5806 5807 5808 5808 5808 5808 5808 5808 5808 5807 5807 5806 5805 5804 5802 5801 5799 5797
5757 5760 5762 5765 5767 5770 5772 5774 5777 5779 5781 5783 5785 5787 5788 5790 5792 5793 5795 5795 5796 5796 5797 5797 5798 5798 5799 5800 5800 5801 5801 5801 5800 5800 5800 5800 5799 5798 5797 5796 5794 5792 5790
5747 5750 5752 5754 5757 5759 5762 5765 5767 5770 5772 5774 5776 5778 5780 5781 5783 5785 5787 5788 5788 5788 5789 5789 5789 5790 5791 5791 5792 5792 5793 5793 5793 5793 5793 5792 5792 5791 5790 5788 5787 5785 5783
5737 5740 5742 5744 5746 5749 5752 5755 5758 5761 5763 5765 5767 5770 5771 5773 5774 5777 5779 5779 5780 5781 5781 5781 5781 5782 5782 5782 5783 5784 5784 5785 5785 5785 5785 5784 5784 5783 5782 5781 5779 5777 5775
5726 5729 5731 5733 5736 5738 5742 5745 5749 5751 5754 5756 5758 5761 5762 5764 5766 5768 5769 5771 5771 5772 5772 5773 5773 5773 5773 5774 5774 5775 5776 5776 5777 5777 5777 5776 5776 5775 5774 5773 5771 5769 5767
5715 5718 5721 5722 5725 5728 5731 5735 5739 5742 5745 5747 5750 5752 5754 5756 5757 5759 5760 5761 5762 5763 5764 5763 5764 5764 5764 5764 5765 5766 5767 5767 5768 5768 5768 5768 5767 5766 5765 5764 5763 5761 5759
5705 5708 5710 5712 5715 5717 5721 5725 5729 5732 5736 5739 5741 5744 5745 5747 5748 5750 5751 5752 5753 5754 5754 5754 5754 5755 5755 5755 5756 5757 5758 5758 5759 5759 5759 5758 5758 5757 5756 5755 5754 5752 5751
5696 5698 5701 5703 5705 5707 5711 5716 5720 5723 5726 5730 5733 5735 5736 5738 5739 5741 5742 5743 5744 5744 5744 5744 5745 5745 5745 5746 5747 5747 5749 5750 5749 5749 5749 5749 5749 5748 5747 5746 5745 5743 5742
5687 5689 5691 5694 5696 5699 5702 5706 5710 5714 5717 5720 5723 5725 5727 5728 5730 5732 5733 5734 5734 5735 5735 5736 5736 5736 5737 5737 5737 5739 5740 5740 5741 5741 5740 5740 5739 5739 5738 5737 5736 5734 5732
5678 5679 5681 5684 5687 5690 5693 5698 5701 5704 5708 5710 5713 5715 5717 5719 5721 5722 5724 5724 5725 5725 5726 5726 5727 5727 5728 5728 5729 5729 5730 5731 5731 5732 5732 5731 5730 5729 5728 5728 5726 5724 5723
5668 5669 5672 5675 5679 5682 5685 5688 5691 5695 5698 5701 5703 5705 5707 5709 5711 5713 5714 5715 5715 5716 5717 5717 5718 5718 5719 5720 5720 5720 5721 5721 5721 5722 5722 5722 5721 5721 5719 5718 5717 5715 5713
5659 5661 5663 5666 5670 5672 5675 5677 5681 5685 5688 5691 5694 5695 5697 5699 5701 5703 5704 5706 5706 5707 5708 5709 5709 5709 5710 5710 5711 5711 5711 5711 5711 5711 5712 5712 5712 5711 5710 5709 5707 5705 5703
Wind_Speed
16 16 15 15 14 14 13 12 12 12 12 12 12 12 11 11 10 10 10 10 9 9 8 8 7 7 6 6 6 6 6 6 7 8 8 8 9 9 10 10 10 10 11
19 18 17 17 16 16 15 14 14 14 14 13 13 13 13 13 12 12 12 11 11 10 10 9 8 8 8 8 8 7 7 8 8 9 9 9 10 10 11 11 11 11 12
21 21 19 19 18 18 17 17 16 16 16 15 15 15 15 15 14 14 13 13 12 12 11 11 10 10 9 9 9 8 9 9 9 10 10 10 11 12 12 13 13 13 13
22 22 22 21 21 20 20 19 19 18 18 18 17 17 16 16 16 15 15 15 14 14 13 13 12 12 11 10 10 10 10 10 10 11 11 12 12 13 13 13 13 14 14
24 24 23 23 23 23 22 21 21 21 21 20 19 19 18 18 18 17 17 17 16 15 15 15 14 14 13 12 12 12 12 12 12 13 13 13 14 14 14 14 14 14 14
26 25 25 24 24 24 24 24 23 23 22 22 22 21 20 20 19 19 19 18 18 17 16 16 16 15 15 14 14 13 13 13 14 14 14 14 15 15 15 15 15 16 16
27 27 26 25 25 25 24 25 25 25 24 24 23 22 22 22 21 21 21 20 20 19 18 18 17 16 16 16 16 15 15 15 15 15 15 15 16 16 16 16 17 17 18
29 28 27 26 26 26 26 26 26 26 26 26 25 24 24 24 23 23 22 22 22 21 20 19 19 19 18 18 18 17 17 17 17 17 17 17 17 18 18 18 19 19 20
31 31 29 28 27 27 27 27 27 27 27 27 27 26 26 25 25 25 24 24 24 23 22 22 21 21 21 20 20 20 20 19 19 19 19 19 19 20 20 20 21 21 22
33 32 31 31 30 29 28 28 28 29 29 28 28 28 27 27 27 27 26 26 26 25 25 25 24 24 23 22 22 22 22 22 21 21 21 21 21 21 22 23 23 23 24
35 34 33 32 32 31 31 30 30 30 30 30 29 29 29 28 28 28 28 28 27 27 27 27 27 26 26 25 25 25 24 24 24 23 23 23 23 23 24 24 25 25 25
36 35 35 34 34 33 33 32 32 32 32 31 31 30 30 30 29 29 29 29 29 29 29 29 29 28 28 28 27 27 27 26 25 25 25 24 25 25 25 26 27 27 27
36 37 37 36 36 36 35 34 34 34 34 33 33 32 32 31 31 31 30 29 29 30 30 30 30 30 30 29 29 29 28 28 27 27 27 26 26 27 27 27 28 28 29
39 39 38 38 38 38 37 36 35 35 35 35 35 34 34 33 32 31 31 30 31 31 31 31 31 31 31 31 30 30 30 30 29 28 28 28 28 28 29 29 30 30 30
41 41 40 40 40 39 39 39 37 37 37 36 36 36 35 35 34 33 32 31 31 32 32 32 33 32 33 33 32 32 32 31 31 30 30 30 30 30 30 31 31 32 32
41 41 41 42 42 41 41 41 40 38 37 38 37 37 37 36 35 34 33 33 32 33 33 34 34 34 34 34 34 34 33 33 33 32 32 32 31 31 32 32 32 33 33
42 42 41 42 43 43 42 42 41 40 39 39 39 39 39 37 37 37 36 35 34 33 34 35 35 35 35 35 35 35 35 34 34 34 34 34 33 33 33 33 33 34 34
43 43 43 42 43 44 43 43 42 41 41 41 40 40 40 39 38 38 38 37 36 35 35 36 36 36 37 37 37 36 36 35 35 35 35 35 35 35 35 35 35 35 36
43 43 44 44 44 44 45 44 43 43 43 42 41 41 41 40 40 39 40 39 38 38 38 38 38 37 38 38 38 37 37 37 36 36 36 37 37 37 36 36 36 36 36
42 43 43 44 45 45 46 45 44 43 43 43 43 42 42 41 41 40 39 40 40 40 40 40 40 40 39 39 39 38 38 38 38 38 38 38 38 38 37 37 37 37 36
43 42 43 44 44 45 45 45 45 44 43 43 43 43 42 41 41 41 41 41 41 40 40 41 41 41 41 40 40 39 39 39 39 39 39 39 38 39 38 37 37 36 37
42 41 41 43 43 43 44 44 46 46 44 44 43 43 43 43 42 42 41 41 41 41 40 41 41 41 41 41 40 40 40 40 40 40 40 40 39 40 39 38 38 37 38
41 42 41 41 42 43 43 44 44 45 45 44 44 44 44 43 43 42 42 41 41 41 40 41 41 41 40 40 40 40 40 41 40 40 40 40 40 40 40 39 39 39 39
40 41 39 41 43 43 43 44 45 45 45 45 45 44 44 45 44 42 41 40 40 40 41 40 40 40 40 40 40 40 41 41 40 40 40 41 40 39 39 40 39 40 40
40 41 39 39 41 42 43 43 45 46 45 45 45 44 44 45 45 44 43 40 40 40 39 39 40 40 40 40 40 41 41 40 40 41 41 41 40 39 39 39 39 40 41
38 41 41 39 39 41 41 42 43 44 44 46 46 45 44 45 46 44 42 42 41 41 40 40 41 41 40 41 41 41 41 41 41 41 40 40 40 39 40 40 40 41 41
Wind_Direction
246 245 244 247 248 250 249 251 253 252 253 250 250 247 249 250 251 249 246 249 252 256 259 262 264 270 277 281 284 289 293 297 301 304 308 309 311 314 315 314 313 312 313
247 247 245 246 248 249 248 248 250 251 252 252 250 247 249 251 252 251 247 248 252 255 258 261 265 269 274 278 282 286 291 296 298 302 303 305 307 309 309 309 310 311 311
248 247 247 246 247 249 249 249 250 250 251 252 251 249 250 251 251 250 249 249 252 256 257 259 264 268 271 275 279 283 287 291 295 298 301 303 306 308 307 307 308 309 310
249 249 250 249 247 247 248 249 251 250 250 251 251 251 251 251 251 250 250 252 253 255 257 258 262 266 270 274 277 281 286 289 294 297 300 302 303 306 308 306 305 306 307
248 249 249 249 249 247 247 248 250 250 250 250 250 251 251 252 253 253 252 253 253 255 256 258 260 263 267 271 274 279 285 289 291 294 298 300 301 302 306 308 305 303 304
247 249 250 250 250 249 248 247 248 250 251 251 251 251 251 252 253 252 253 254 254 255 255 257 259 263 266 268 272 277 283 286 289 291 295 297 298 300 302 305 306 304 301
246 248 251 250 249 247 246 247 246 247 248 250 251 252 251 252 253 253 254 254 255 256 257 258 261 262 265 266 269 273 279 283 285 289 292 294 297 299 299 300 302 302 302
247 248 249 249 249 248 246 246 247 247 247 248 249 251 252 253 254 254 255 255 256 257 258 259 260 262 265 265 266 269 274 278 282 285 288 291 294 296 297 298 298 299 300
248 247 247 248 249 249 247 246 247 247 247 247 249 251 253 253 254 255 255 256 257 258 259 259 261 263 265 267 267 269 272 275 278 282 285 288 291 294 296 296 297 297 299
247 247 247 247 247 249 249 248 247 246 247 247 249 251 253 255 255 255 256 257 258 258 259 260 262 263 265 266 267 270 273 273 275 279 282 285 288 292 294 295 296 296 298
247 247 248 247 247 247 249 249 249 247 247 248 249 251 253 255 256 257 257 257 258 259 260 261 262 264 265 267 267 269 273 275 275 277 280 282 286 289 293 294 294 295 296
249 248 248 246 246 247 248 249 250 250 249 249 250 252 253 255 256 257 258 259 259 260 260 261 262 264 265 267 269 270 272 274 276 278 280 281 284 288 291 293 293 293 294
249 249 249 246 245 246 247 249 250 250 250 250 251 252 254 255 256 257 259 260 259 260 261 261 262 264 265 266 269 271 272 274 275 278 279 281 284 287 289 291 292 292 294
248 248 248 246 245 246 247 248 250 251 250 251 250 251 253 255 256 257 259 260 260 262 262 262 262 263 264 266 268 270 272 274 274 277 279 281 283 286 288 290 291 292 293
248 248 247 247 245 245 246 247 249 250 250 250 250 250 252 253 254 256 258 260 261 262 262 263 263 263 264 266 267 269 271 273 275 275 278 281 283 285 288 290 291 291 291
247 247 248 246 245 245 246 247 249 249 249 249 248 249 250 252 253 255 257 261 262 263 264 264 263 264 264 266 267 269 270 272 274 275 276 279 282 285 287 288 290 291 291
247 248 248 247 245 246 246 246 248 247 247 248 248 249 250 251 252 254 256 259 261 263 265 265 265 265 265 266 267 268 269 271 273 275 277 278 281 284 286 288 289 290 290
247 248 249 248 247 245 245 245 245 245 246 247 248 249 250 251 253 255 256 259 262 262 264 266 266 267 267 267 267 268 269 270 271 274 276 278 280 283 285 286 288 289 289
247 247 248 248 247 245 243 243 245 245 245 246 247 249 250 251 253 255 257 258 261 263 264 266 267 268 268 268 267 267 268 269 270 273 275 278 280 281 283 284 285 287 288
246 246 247 248 247 246 243 241 242 242 244 246 247 249 250 251 253 255 259 260 261 262 263 265 267 268 268 268 268 267 267 268 270 272 274 277 278 280 282 283 283 286 287
246 247 247 247 247 246 244 242 242 243 244 246 248 250 251 252 253 255 259 262 261 263 264 265 267 268 268 268 267 266 267 268 270 272 273 276 278 280 281 282 282 283 286
248 248 249 248 247 245 243 242 242 243 245 247 249 252 254 254 255 256 258 261 263 265 265 266 267 268 268 267 266 266 267 268 270 272 273 275 277 279 280 280 281 282 285
251 249 249 247 246 244 243 242 243 244 245 246 247 251 254 255 256 257 259 261 264 265 266 267 268 268 267 267 267 267 268 269 271 272 274 275 277 278 279 279 281 282 284
252 250 250 247 243 244 245 244 246 245 246 247 248 251 253 255 255 256 258 260 262 263 264 265 266 268 268 268 268 269 270 271 271 272 274 275 276 276 278 279 281 282 284
251 249 248 246 243 245 245 246 247 247 247 247 248 251 252 253 254 256 256 258 260 262 264 265 266 267 268 268 268 269 270 270 271 273 274 275 275 276 278 280 282 283 284
251 249 246 247 245 245 245 247 247 248 248 248 249 251 253 253 254 254 255 257 260 262 265 266 267 267 268 268 267 268 269 270 271 271 273 274 275 276 277 280 282 283 285